• In Portugal
  • List of Countries
  • For 7 days
  • Water Temperature
  • Satellite Maps
  • Weather Map
  • Weather Widgets
  • user-avatar
    Login

    Hourly Weather Yangon

    Today, 24 February, Saturday

    Time Temperature Precipitation Wind Pressure Humidity
    00:00 +28°C° 0 mm 3 mps 758 mmHg 46%
    01:00 +27°C° 0 mm 3 mps 757 mmHg 45%
    02:00 +27°C° 0 mm 2 mps 757 mmHg 43%
    03:00 +26°C° 0 mm 2 mps 757 mmHg 42%
    04:00 +26°C° 0 mm 2 mps 758 mmHg 45%
    05:00 +25°C° 0 mm 1 mps 758 mmHg 48%
    06:00 +25°C° 0 mm 1 mps 758 mmHg 50%
    07:00 +27°C° 0 mm 1 mps 759 mmHg 44%
    08:00 +30°C° 0 mm 1 mps 759 mmHg 38%
    09:00 +32°C° 0 mm 1 mps 759 mmHg 32%
    10:00 +34°C° 0 mm 1 mps 759 mmHg 31%
    11:00 +36°C° 0 mm 2 mps 759 mmHg 29%
    12:00 +38°C° 0 mm 2 mps 758 mmHg 28%
    13:00 +38°C° 0 mm 2 mps 758 mmHg 28%
    14:00 +38°C° 0 mm 3 mps 757 mmHg 28%
    15:00 +39°C° 0 mm 3 mps 756 mmHg 28%
    16:00 +37°C° 0 mm 3 mps 756 mmHg 33%
    17:00 +35°C° 0 mm 4 mps 757 mmHg 39%
    18:00 +34°C° 0 mm 4 mps 757 mmHg 44%
    19:00 +33°C° 0 mm 4 mps 757 mmHg 47%
    20:00 +32°C° 0 mm 4 mps 758 mmHg 49%
    21:00 +30°C° 0 mm 4 mps 758 mmHg 52%
    22:00 +30°C° 0 mm 4 mps 758 mmHg 50%
    23:00 +29°C° 0 mm 4 mps 758 mmHg 49%

    Tomorrow, 25 February, Sunday

    Time Temperature Precipitation Wind Pressure Humidity
    00:00 +28°C° 0 mm 4 mps 758 mmHg 47%
    01:00 +28°C° 0 mm 4 mps 758 mmHg 49%
    02:00 +27°C° 0 mm 3 mps 757 mmHg 51%
    03:00 +27°C° 0 mm 3 mps 757 mmHg 52%
    04:00 +26°C° 0 mm 3 mps 757 mmHg 54%
    05:00 +26°C° 0 mm 2 mps 757 mmHg 56%
    06:00 +25°C° 0 mm 2 mps 758 mmHg 58%
    07:00 +28°C° 0 mm 2 mps 758 mmHg 49%
    08:00 +30°C° 0 mm 2 mps 759 mmHg 40%
    09:00 +34°C° 0 mm 2 mps 759 mmHg 31%
    10:00 +35°C° 0 mm 2 mps 759 mmHg 28%
    11:00 +37°C° 0 mm 2 mps 758 mmHg 26%
    12:00 +39°C° 0 mm 2 mps 758 mmHg 23%
    13:00 +39°C° 0 mm 2 mps 757 mmHg 22%
    14:00 +40°C° 0 mm 2 mps 756 mmHg 22%
    15:00 +40°C° 0 mm 2 mps 755 mmHg 21%
    16:00 +38°C° 0 mm 3 mps 755 mmHg 26%
    17:00 +36°C° 0 mm 3 mps 755 mmHg 31%
    18:00 +34°C° 0 mm 3 mps 755 mmHg 36%
    19:00 +33°C° 0 mm 3 mps 756 mmHg 40%
    20:00 +32°C° 0 mm 4 mps 756 mmHg 44%
    21:00 +30°C° 0 mm 4 mps 757 mmHg 49%
    22:00 +30°C° 0 mm 4 mps 757 mmHg 48%
    23:00 +29°C° 0 mm 4 mps 757 mmHg 47%

    Day after tomorrow, 26 February, Monday

    Time Temperature Precipitation Wind Pressure Humidity
    00:00 +29°C° 0 mm 4 mps 756 mmHg 46%
    01:00 +28°C° 0 mm 4 mps 756 mmHg 46%
    02:00 +27°C° 0 mm 4 mps 756 mmHg 47%
    03:00 +27°C° 0 mm 4 mps 755 mmHg 48%
    04:00 +26°C° 0 mm 3 mps 756 mmHg 49%
    05:00 +26°C° 0 mm 3 mps 756 mmHg 50%
    06:00 +25°C° 0 mm 2 mps 757 mmHg 52%
    07:00 +28°C° 0 mm 2 mps 757 mmHg 43%
    08:00 +30°C° 0 mm 2 mps 758 mmHg 34%
    09:00 +34°C° 0 mm 2 mps 758 mmHg 25%
    10:00 +36°C° 0 mm 2 mps 758 mmHg 22%
    11:00 +38°C° 0 mm 2 mps 757 mmHg 18%
    12:00 +40°C° 0 mm 2 mps 756 mmHg 15%
    13:00 +40°C° 0 mm 2 mps 756 mmHg 15%
    14:00 +41°C° 0 mm 2 mps 755 mmHg 15%
    15:00 +42°C° 0 mm 3 mps 754 mmHg 15%
    16:00 +39°C° 0 mm 3 mps 754 mmHg 20%
    17:00 +37°C° 0 mm 3 mps 754 mmHg 25%
    18:00 +35°C° 0 mm 3 mps 755 mmHg 30%
    19:00 +34°C° 0 mm 3 mps 755 mmHg 34%
    20:00 +33°C° 0 mm 4 mps 756 mmHg 38%
    21:00 +30°C° 0 mm 4 mps 756 mmHg 42%
    22:00 +30°C° 0 mm 4 mps 756 mmHg 41%
    23:00 +29°C° 0 mm 4 mps 756 mmHg 40%

    27 February, Tuesday

    Time Temperature Precipitation Wind Pressure Humidity
    00:00 +28°C° 0 mm 4 mps 756 mmHg 39%
    01:00 +28°C° 0 mm 4 mps 756 mmHg 44%
    02:00 +27°C° 0 mm 4 mps 756 mmHg 50%
    03:00 +26°C° 0 mm 3 mps 755 mmHg 55%
    04:00 +26°C° 0 mm 3 mps 756 mmHg 55%
    05:00 +26°C° 0 mm 2 mps 756 mmHg 55%
    06:00 +25°C° 0 mm 2 mps 757 mmHg 55%
    07:00 +28°C° 0 mm 2 mps 757 mmHg 46%
    08:00 +30°C° 0 mm 2 mps 758 mmHg 36%
    09:00 +34°C° 0 mm 2 mps 758 mmHg 26%
    10:00 +35°C° 0 mm 1 mps 758 mmHg 22%
    11:00 +37°C° 0 mm 1 mps 757 mmHg 18%
    12:00 +40°C° 0 mm 1 mps 756 mmHg 15%
    13:00 +40°C° 0 mm 2 mps 755 mmHg 14%
    14:00 +40°C° 0 mm 3 mps 754 mmHg 14%
    15:00 +42°C° 0 mm 3 mps 753 mmHg 13%
    16:00 +39°C° 0 mm 3 mps 754 mmHg 18%
    17:00 +36°C° 0 mm 4 mps 754 mmHg 22%
    18:00 +34°C° 0 mm 4 mps 754 mmHg 27%
    19:00 +33°C° 0 mm 4 mps 754 mmHg 32%
    20:00 +32°C° 0 mm 4 mps 755 mmHg 38%
    21:00 +30°C° 0 mm 4 mps 756 mmHg 43%
    22:00 +29°C° 0 mm 4 mps 755 mmHg 43%
    23:00 +28°C° 0 mm 4 mps 755 mmHg 44%

    28 February, Wednesday

    Time Temperature Precipitation Wind Pressure Humidity
    00:00 +27°C° 0 mm 4 mps 755 mmHg 45%
    01:00 +27°C° 0 mm 4 mps 755 mmHg 48%
    02:00 +26°C° 0 mm 4 mps 755 mmHg 51%
    03:00 +25°C° 0 mm 4 mps 754 mmHg 54%
    04:00 +25°C° 0 mm 3 mps 755 mmHg 53%
    05:00 +25°C° 0 mm 3 mps 755 mmHg 52%
    06:00 +24°C° 0 mm 3 mps 755 mmHg 51%
    07:00 +27°C° 0 mm 3 mps 756 mmHg 43%
    08:00 +30°C° 0 mm 2 mps 756 mmHg 36%
    09:00 +32°C° 0 mm 2 mps 757 mmHg 28%
    10:00 +36°C° 0 mm 2 mps 756 mmHg 24%
    11:00 +38°C° 0 mm 2 mps 756 mmHg 20%
    12:00 +40°C° 0 mm 1 mps 755 mmHg 16%
    13:00 +40°C° 0 mm 2 mps 754 mmHg 16%
    14:00 +40°C° 0 mm 3 mps 754 mmHg 16%
    15:00 +41°C° 0 mm 4 mps 753 mmHg 15%
    16:00 +38°C° 0 mm 4 mps 753 mmHg 22%
    17:00 +35°C° 0 mm 4 mps 754 mmHg 28%
    18:00 +33°C° 0 mm 4 mps 754 mmHg 34%
    19:00 +32°C° 0 mm 4 mps 754 mmHg 39%
    20:00 +30°C° 0 mm 4 mps 755 mmHg 44%
    21:00 +29°C° 0 mm 4 mps 755 mmHg 49%
    22:00 +28°C° 0 mm 4 mps 755 mmHg 53%
    23:00 +27°C° 0 mm 4 mps 755 mmHg 57%

    1 March, Thursday

    Time Temperature Precipitation Wind Pressure Humidity
    00:00 +27°C° 0 mm 4 mps 755 mmHg 61%
    01:00 +26°C° 0 mm 4 mps 754 mmHg 65%
    02:00 +26°C° 0 mm 4 mps 754 mmHg 70%
    03:00 +25°C° 0 mm 4 mps 754 mmHg 74%
    04:00 +25°C° 0 mm 4 mps 754 mmHg 77%
    05:00 +24°C° 0 mm 3 mps 755 mmHg 80%
    06:00 +24°C° 0 mm 3 mps 755 mmHg 83%
    07:00 +26°C° 0 mm 2 mps 756 mmHg 71%
    08:00 +29°C° 0 mm 2 mps 756 mmHg 58%
    09:00 +31°C° 0 mm 2 mps 757 mmHg 45%
    10:00 +34°C° 0 mm 2 mps 756 mmHg 37%
    11:00 +36°C° 0 mm 2 mps 755 mmHg 28%
    12:00 +39°C° 0 mm 3 mps 755 mmHg 20%
    13:00 +39°C° 0 mm 3 mps 754 mmHg 19%
    14:00 +40°C° 0 mm 4 mps 753 mmHg 19%
    15:00 +41°C° 0 mm 5 mps 753 mmHg 18%
    16:00 +37°C° 0 mm 5 mps 753 mmHg 27%
    17:00 +35°C° 0 mm 5 mps 753 mmHg 35%
    18:00 +33°C° 0 mm 6 mps 753 mmHg 43%
    19:00 +32°C° 0 mm 5 mps 754 mmHg 47%
    20:00 +30°C° 0 mm 5 mps 754 mmHg 51%
    21:00 +28°C° 0 mm 4 mps 755 mmHg 55%
    22:00 +27°C° 0 mm 4 mps 755 mmHg 62%
    23:00 +26°C° 0 mm 4 mps 755 mmHg 68%
    Show more